Weather in Urovskiye Klyuchi

Russia / Zabaykalsky Krai     51°41′34″N   119°27′43″E
temp.,
°C
wind,
m/s
gust,
m/s
humid.,
%
clouds,
%
prec.,
mm/h
press.,
hPa
HPBL,
m
1 august, sun
sun100:00+10nnw259282 0.0 1008117
03:00+9n389696 0.0 1008281
06:00+11nnw299096 0.0 1007561
09:00+12n398199 0.0 1007698
12:00+14n477287 0.0 1006934
15:00+16nne346695 0.1 10061064
18:00+16nne237443 0.3 1006542
21:00+11nne11945 0.5 100811
2 august, mon
mon200:00+8ene00965 0.0 100910
03:00+8sse009792 0.0 100911
06:00+10se119623 0.0 101042
09:00+15sse248012 0.0 1009412
12:00+18s476453 0.0 10081009
15:00+22ssw575829 0.1 10071486
18:00+22s45585 0.1 10061202
21:00+15sse229587 0.1 100823
3 august, tue
tue300:00+14sse119685 0.0 100917
03:00+13se1197100 0.0 100815
06:00+12sse1197100 0.0 100913
09:00+19s1274100 0.0 1008311
12:00+23sse3446100 0.0 10071219
15:00+25s334391 0.0 10051798
18:00+23ssw335339 0.0 10051373
21:00+16ssw11930 0.0 100611
4 august, wed
wed400:00+14ssw119535 0.0 100611
03:00+13s1196100 0.0 100711
06:00+13sse119698 0.0 100610
09:00+20ese01702 0.0 1006363
12:00+21e2270100 1.3 1004711
15:00+20se1182100 5.2 1003130
18:00+19sw0087100 1.3 100318
21:00+16s1193100 1.5 100411
5 august, thu
thu500:00+14nnw2397100 1.8 100375
03:00+13nne2297100 2.8 100360
06:00+13nne2399100 2.8 100386
09:00+14nne2499100 6.4 1003217
12:00+16nne2394100 0.2 1003376
15:00+18nne2491100 2.1 1001416
18:00+18nne2592100 2.9 1001508
21:00+15n239765 3.4 100248